Location: *
(38.3914°N, 75.0697°W)
Time: 15:47:26
(UTC+00:00)

STARLINK-1086 - Pass Details

Date: 17 February 2020
Orbit: 379 x 380 km, 53.0° (Epoch: 08 April)

Event Time Altitude Azimuth Distance (km) Brightness Sun altitude
Exits shadow 09:59:15 48° 93° (E) 510 3.8 -22.1°
Drops below altitude 10° 10:01:48 10° 56° (ENE) 1,405 6.5 -21.6°
Enters shadow 10:58:01 -68° 232° (SW) 12,229 10.4 -10.6°
